Terminal Aerodrome Forecast
Issued by NWS Grand Forks, ND

Home | Current Version | Previous Version | Graphics & Text | Print | Product List | Glossary On
Versions: 1 2 3 4 5 6 7 8 9 10 11 12 13 14 15 16 17 18 19
000
FTUS43 KFGF 200828 AAA
TAFFAR
TAF AMD
KFAR 200828Z 2008/2106 16010KT 4SM BR OVC003
      TEMPO 2008/2011 1SM BR
     FM201300 14006KT 3/4SM BR OVC003
     FM201800 15007KT P6SM OVC003=

USA.gov is the U.S. government's official web portal to all federal, state and local government web resources and services.